Location: Banios
(43.0451°N, 0.2335°E)
Time: 02:28:25
(UTC+00:00)

A-11 Canister half - Visible Passes

Search period start: 12 May 2021 00:00
Search period end: 22 May 2021 00:00
Orbit: 1514 x 1685 km, 47.2° (Epoch: 11 May)

Date Brightness Start Highest point End Pass type
(mag) Time Alt. Az. Time Alt. Az. Time Alt. Az.
12 May 9.0 20:01:25 10° WNW 20:10:46 83° SSW 20:19:36 13° ESE visible
12 May 9.8 22:06:48 10° WNW 22:14:52 34° SW 22:17:47 28° SSW visible
13 May 9.1 19:38:31 10° WNW 19:47:51 86° SSW 19:57:26 10° ESE visible
13 May 9.8 21:43:48 10° WNW 21:52:02 36° SW 21:56:01 26° S visible
14 May 9.7 21:20:50 10° WNW 21:29:11 38° SW 21:34:17 23° S visible
15 May 9.7 20:57:52 10° WNW 21:06:20 40° SW 21:12:36 19° SSE visible
16 May 9.7 20:34:55 10° WNW 20:43:28 43° SW 20:50:57 15° SSE visible
17 May 9.6 20:11:58 10° WNW 20:20:37 45° SW 20:29:21 10° SSE visible
17 May 10.8 22:21:42 10° WSW 22:23:42 11° WSW 22:25:43 10° SW visible
18 May 9.6 19:49:02 10° WNW 19:57:46 47° SW 20:06:42 10° SSE visible
18 May 10.8 21:57:43 10° WSW 22:00:54 12° WSW 22:04:08 10° SW visible
19 May 10.8 21:34:06 10° W 21:38:07 13° WSW 21:42:10 10° SSW visible
20 May 10.8 21:10:40 10° W 21:15:19 15° SW 21:20:01 10° SSW visible
21 May 10.8 20:47:21 10° W 20:52:30 16° SW 20:57:45 10° SSW visible
